Regional Weather Roundup
Issued by NWS Goodland, KS

Home | Current Version | Previous Version | Text Only | Print | Product List | Glossary On
Versions: 1 2 3 4 5 6 7 8 9 10 11 12 13 14 15 16 17 18 19 20 21 22 23 24 25 26 27 28 29 30 31 32 33 34 35 36 37 38 39 40 41 42 43 44 45 46 47 48 49 50
000
ASUS43 KGLD 130008
RWRGLD

GOODLAND FORECAST AREA HOURLY WEATHER ROUNDUP
NATIONAL WEATHER SERVICE GOODLAND KS
600 PM MDT SAT JUL 12 2014

...OFFICIAL OBSERVATIONS...

CITY           SKY/WX    TMP DP  RH WIND       PRES   REMARKS
GOODLAND KS    MOSUNNY   84  63  49 N13       30.12S
HILL CITY KS   MOSUNNY   89  68  49 N17       30.00R
IMPERIAL NEB   MOSUNNY   83  61  47 N10       30.12S
MCCOOK NEB     SUNNY     83  68  60 NE16      30.06F
AKRON CO       PTSUNNY   80  59  48 N9        30.20F
BURLINGTON CO  SUNNY     82  61  48 NE10      30.16S
LIMON CO       CLOUDY    78  56  46 NE13      30.25S
$$

...UNOFFICIAL OBSERVATIONS...

CITY           SKY/WX    TMP DP  RH WIND       PRES   REMARKS
COLBY KS       SUNNY     88  68  51 N9        30.08F
GOVE KS          N/A     91  32  12 CALM        N/A
LENORA KS        N/A     85  32  15 MISG        N/A
NORTON KS      SUNNY     79  63  57 N15       30.03S
KIT CARSON CO    N/A     85  62  45 N15         N/A
YUMA CO          N/A     79  62  55 NE8         N/A
$$


USA.gov is the U.S. government's official web portal to all federal, state and local government web resources and services.